When you browse on this site, cookies collect data to enhance your experience and personalize the content and advertising you see.
Visit our Privacy Policy to learn more. By continuing to use the site, you agree to this use of cookies and data.
  • In Deutschland
  • Länderverzeichnis
  • Für 7 Tage
  • Wassertemperatur
  • Wetterkarte
  • Widgets
  • user-avatar
    Anmelden

    Stündliche Wetter Jerewan

    Heute, 22 September, Sonntag

    Zeit Temperatur Niederschläge Wind Luftdruck Luftfeuchtigkeit
    00:00 +15°C° 0 mm 7 m/S 689 mmHg 37%
    01:00 +15°C° 0 mm 6 m/S 689 mmHg 37%
    02:00 +14°C° 0 mm 6 m/S 689 mmHg 37%
    03:00 +13°C° 0 mm 5 m/S 690 mmHg 39%
    04:00 +13°C° 0 mm 5 m/S 690 mmHg 40%
    05:00 +12°C° 0 mm 4 m/S 691 mmHg 42%
    06:00 +12°C° 0 mm 4 m/S 691 mmHg 43%
    07:00 +13°C° 0 mm 4 m/S 691 mmHg 39%
    08:00 +15°C° 0 mm 4 m/S 692 mmHg 35%
    09:00 +17°C° 0 mm 5 m/S 693 mmHg 31%
    10:00 +19°C° 0 mm 4 m/S 693 mmHg 28%
    11:00 +20°C° 0 mm 4 m/S 693 mmHg 25%
    12:00 +22°C° 0 mm 3 m/S 693 mmHg 22%
    13:00 +22°C° 0 mm 3 m/S 692 mmHg 20%
    14:00 +24°C° 0 mm 2 m/S 692 mmHg 18%
    15:00 +25°C° 0 mm 1 m/S 692 mmHg 17%
    16:00 +23°C° 0 mm 1 m/S 691 mmHg 19%
    17:00 +21°C° 0 mm 1 m/S 691 mmHg 21%
    18:00 +19°C° 0 mm 1 m/S 691 mmHg 24%
    19:00 +19°C° 0 mm 1 m/S 691 mmHg 26%
    20:00 +18°C° 0 mm 1 m/S 692 mmHg 29%
    21:00 +16°C° 0 mm 2 m/S 692 mmHg 32%
    22:00 +16°C° 0 mm 2 m/S 692 mmHg 35%
    23:00 +15°C° 0 mm 1 m/S 691 mmHg 38%

    Morgen, 23 September, Montag

    Zeit Temperatur Niederschläge Wind Luftdruck Luftfeuchtigkeit
    00:00 +14°C° 0 mm 1 m/S 691 mmHg 41%
    01:00 +14°C° 0 mm 1 m/S 691 mmHg 43%
    02:00 +13°C° 0 mm 1 m/S 691 mmHg 45%
    03:00 +13°C° 0 mm 1 m/S 691 mmHg 47%
    04:00 +12°C° 0 mm 1 m/S 690 mmHg 49%
    05:00 +12°C° 0 mm 1 m/S 690 mmHg 50%
    06:00 +11°C° 0 mm 1 m/S 690 mmHg 51%
    07:00 +14°C° 0 mm 1 m/S 690 mmHg 44%
    08:00 +16°C° 0 mm 1 m/S 691 mmHg 38%
    09:00 +20°C° 0 mm 1 m/S 691 mmHg 31%
    10:00 +21°C° 0 mm 1 m/S 691 mmHg 29%
    11:00 +23°C° 0 mm 2 m/S 691 mmHg 26%
    12:00 +24°C° 0 mm 2 m/S 690 mmHg 24%
    13:00 +25°C° 0 mm 2 m/S 690 mmHg 23%
    14:00 +26°C° 0 mm 2 m/S 690 mmHg 22%
    15:00 +27°C° 0 mm 1 m/S 689 mmHg 21%
    16:00 +25°C° 0 mm 1 m/S 689 mmHg 24%
    17:00 +23°C° 0 mm 1 m/S 688 mmHg 28%
    18:00 +21°C° 0 mm 1 m/S 688 mmHg 31%
    19:00 +21°C° 0 mm 1 m/S 688 mmHg 32%
    20:00 +20°C° 0 mm 1 m/S 689 mmHg 33%
    21:00 +19°C° 0 mm 1 m/S 689 mmHg 34%
    22:00 +19°C° 0 mm 1 m/S 689 mmHg 34%
    23:00 +18°C° 0 mm 1 m/S 689 mmHg 34%

    übermorgen, 24 September, Dienstag

    Zeit Temperatur Niederschläge Wind Luftdruck Luftfeuchtigkeit
    00:00 +18°C° 0 mm 1 m/S 689 mmHg 35%
    01:00 +16°C° 0 mm 1 m/S 689 mmHg 38%
    02:00 +16°C° 0 mm 1 m/S 689 mmHg 41%
    03:00 +15°C° 0 mm 1 m/S 689 mmHg 44%
    04:00 +15°C° 0 mm 1 m/S 689 mmHg 46%
    05:00 +14°C° 0 mm 1 m/S 689 mmHg 47%
    06:00 +14°C° 0 mm 1 m/S 689 mmHg 49%
    07:00 +16°C° 0 mm 1 m/S 690 mmHg 42%
    08:00 +20°C° 0 mm 1 m/S 690 mmHg 35%
    09:00 +23°C° 0 mm 1 m/S 691 mmHg 28%
    10:00 +24°C° 0 mm 1 m/S 691 mmHg 25%
    11:00 +26°C° 0 mm 2 m/S 691 mmHg 22%
    12:00 +27°C° 0 mm 2 m/S 690 mmHg 18%
    13:00 +28°C° 0 mm 2 m/S 690 mmHg 17%
    14:00 +29°C° 0 mm 2 m/S 690 mmHg 15%
    15:00 +30°C° 0 mm 2 m/S 690 mmHg 14%
    16:00 +28°C° 0 mm 2 m/S 689 mmHg 16%
    17:00 +26°C° 0 mm 2 m/S 689 mmHg 18%
    18:00 +24°C° 0 mm 2 m/S 689 mmHg 20%
    19:00 +23°C° 0 mm 2 m/S 689 mmHg 21%
    20:00 +21°C° 0 mm 2 m/S 689 mmHg 21%
    21:00 +21°C° 0 mm 2 m/S 690 mmHg 21%
    22:00 +20°C° 0 mm 2 m/S 689 mmHg 23%
    23:00 +19°C° 0 mm 2 m/S 689 mmHg 26%

    25 September, Mittwoch

    Zeit Temperatur Niederschläge Wind Luftdruck Luftfeuchtigkeit
    00:00 +19°C° 0 mm 1 m/S 689 mmHg 28%
    01:00 +18°C° 0 mm 1 m/S 689 mmHg 31%
    02:00 +16°C° 0 mm 1 m/S 689 mmHg 34%
    03:00 +16°C° 0 mm 1 m/S 688 mmHg 37%
    04:00 +15°C° 0 mm 1 m/S 688 mmHg 39%
    05:00 +15°C° 0 mm 1 m/S 688 mmHg 40%
    06:00 +14°C° 0 mm 1 m/S 688 mmHg 41%
    07:00 +18°C° 0 mm 1 m/S 689 mmHg 35%
    08:00 +21°C° 0 mm 1 m/S 689 mmHg 28%
    09:00 +24°C° 0 mm 1 m/S 690 mmHg 22%
    10:00 +26°C° 0 mm 1 m/S 690 mmHg 19%
    11:00 +27°C° 0 mm 1 m/S 690 mmHg 17%
    12:00 +29°C° 0 mm 2 m/S 690 mmHg 14%
    13:00 +30°C° 0 mm 2 m/S 689 mmHg 13%
    14:00 +31°C° 0 mm 2 m/S 689 mmHg 12%
    15:00 +31°C° 0 mm 2 m/S 689 mmHg 12%
    16:00 +29°C° 0 mm 2 m/S 689 mmHg 13%
    17:00 +27°C° 0 mm 2 m/S 688 mmHg 15%
    18:00 +25°C° 0 mm 2 m/S 688 mmHg 17%
    19:00 +25°C° 0 mm 2 m/S 688 mmHg 18%
    20:00 +24°C° 0 mm 2 m/S 689 mmHg 19%
    21:00 +23°C° 0 mm 1 m/S 689 mmHg 20%
    22:00 +23°C° 0 mm 1 m/S 689 mmHg 20%
    23:00 +22°C° 0 mm 1 m/S 689 mmHg 20%

    26 September, Donnerstag

    Zeit Temperatur Niederschläge Wind Luftdruck Luftfeuchtigkeit
    00:00 +20°C° 0 mm 0 m/S 689 mmHg 20%
    01:00 +22°C° 0 mm 1 m/S 689 mmHg 21%
    02:00 +21°C° 0 mm 1 m/S 689 mmHg 22%
    03:00 +20°C° 0 mm 1 m/S 689 mmHg 23%
    04:00 +20°C° 0 mm 1 m/S 689 mmHg 24%
    05:00 +19°C° 0 mm 1 m/S 689 mmHg 26%
    06:00 +18°C° 0 mm 1 m/S 689 mmHg 27%
    07:00 +21°C° 0 mm 1 m/S 690 mmHg 23%
    08:00 +24°C° 0 mm 1 m/S 690 mmHg 20%
    09:00 +27°C° 0 mm 1 m/S 691 mmHg 16%
    10:00 +29°C° 0 mm 1 m/S 691 mmHg 15%
    11:00 +30°C° 0 mm 1 m/S 691 mmHg 15%
    12:00 +32°C° 0 mm 2 m/S 691 mmHg 14%
    13:00 +34°C° 0 mm 2 m/S 691 mmHg 13%
    14:00 +34°C° 0 mm 2 m/S 690 mmHg 12%
    15:00 +35°C° 0 mm 2 m/S 690 mmHg 11%
    16:00 +32°C° 0 mm 2 m/S 689 mmHg 14%
    17:00 +29°C° 0 mm 2 m/S 689 mmHg 16%
    18:00 +26°C° 0 mm 1 m/S 688 mmHg 19%
    19:00 +26°C° 0 mm 1 m/S 689 mmHg 19%
    20:00 +25°C° 0 mm 2 m/S 689 mmHg 20%
    21:00 +24°C° 0 mm 2 m/S 689 mmHg 21%
    22:00 +23°C° 0 mm 2 m/S 689 mmHg 22%
    23:00 +23°C° 0 mm 2 m/S 689 mmHg 23%

    27 September, Freitag

    Zeit Temperatur Niederschläge Wind Luftdruck Luftfeuchtigkeit
    00:00 +22°C° 0 mm 1 m/S 689 mmHg 24%
    01:00 +20°C° 0 mm 2 m/S 689 mmHg 26%
    02:00 +20°C° 0 mm 2 m/S 689 mmHg 29%
    03:00 +19°C° 0 mm 2 m/S 689 mmHg 31%
    04:00 +19°C° 0 mm 1 m/S 689 mmHg 34%
    05:00 +19°C° 0 mm 1 m/S 689 mmHg 36%
    06:00 +18°C° 0 mm 1 m/S 688 mmHg 39%
    07:00 +21°C° 0 mm 1 m/S 689 mmHg 33%
    08:00 +24°C° 0 mm 1 m/S 689 mmHg 27%
    09:00 +27°C° 0 mm 1 m/S 690 mmHg 21%
    10:00 +29°C° 0 mm 1 m/S 690 mmHg 20%
    11:00 +30°C° 0 mm 1 m/S 690 mmHg 18%
    12:00 +32°C° 0 mm 2 m/S 690 mmHg 16%
    13:00 +34°C° 0 mm 2 m/S 689 mmHg 15%
    14:00 +34°C° 0 mm 3 m/S 689 mmHg 14%
    15:00 +35°C° 0 mm 3 m/S 688 mmHg 13%
    16:00 +33°C° 0 mm 3 m/S 688 mmHg 15%
    17:00 +30°C° 0 mm 3 m/S 687 mmHg 17%
    18:00 +28°C° 0 mm 3 m/S 687 mmHg 19%
    19:00 +27°C° 0 mm 3 m/S 687 mmHg 20%
    20:00 +27°C° 0 mm 3 m/S 688 mmHg 22%
    21:00 +26°C° 0 mm 4 m/S 688 mmHg 23%
    22:00 +25°C° 0 mm 3 m/S 688 mmHg 26%
    23:00 +24°C° 0 mm 3 m/S 688 mmHg 30%
    Mehr zeigen